AAL73 KLAX-YSSY

Flight info

Callsign AAL73
Flight time N/A
Altitude 30000
Route SUMMR2 DINTY DCT DUETS DCT 31N130W 28N135W 25N140W/N0502F320 22N145W 17N150W 13N155W 10N160W 07N165W/N0503F340 DCT CEBUR DCT 00N173W 05S178W 10S177E/N0496F360 15S172E DCT LEDIT DCT 20S166E 2348S16300E 25S162E DCT LENRI/N0487F380 DCT RIBLU DCT ABARB DCT RIKNI N774 MARLN
Aircraft B77W/H-SDE1E2E3FGHIJ2J3J4J5M1RWXY/LB1D1

Departure

Time 2026-05-05 08:11
Airport Los Angeles International Airport (KLAX)

Arrival

Time N/A
Airport Sydney Kingsford Smith International Airport (YSSY)
Time Latitude Longitude Altitude Speed Heading
2026-05-05 06:47 33.94089 -118.40927 138 ft 0 kts 263°
2026-05-05 07:57 33.94090 -118.40914 138 ft 2 kts 263°
2026-05-05 07:57 33.94092 -118.40897 138 ft 1 kts 263°
2026-05-05 07:58 33.94094 -118.40885 138 ft 2 kts 256°
2026-05-05 07:58 33.94099 -118.40868 138 ft 2 kts 233°
2026-05-05 07:58 33.94110 -118.40855 138 ft 2 kts 216°
2026-05-05 07:58 33.94123 -118.40846 138 ft 2 kts 198°
2026-05-05 07:59 33.94138 -118.40843 138 ft 2 kts 180°
2026-05-05 07:59 33.94146 -118.40844 137 ft 1 kts 171°
2026-05-05 07:59 33.94148 -118.40844 137 ft 0 kts 171°
2026-05-05 08:01 33.94146 -118.40844 137 ft 1 kts 171°
2026-05-05 08:01 33.94117 -118.40839 138 ft 7 kts 171°
2026-05-05 08:01 33.94047 -118.40826 138 ft 13 kts 173°
2026-05-05 08:01 33.93966 -118.40815 138 ft 8 kts 175°
2026-05-05 08:02 33.93921 -118.40801 139 ft 5 kts 150°
2026-05-05 08:02 33.93901 -118.40782 139 ft 2 kts 139°
2026-05-05 08:02 33.93854 -118.40745 141 ft 11 kts 153°
2026-05-05 08:02 33.93814 -118.40648 140 ft 15 kts 86°
2026-05-05 08:03 33.93826 -118.40524 138 ft 14 kts 82°
2026-05-05 08:03 33.93840 -118.40406 135 ft 14 kts 83°
2026-05-05 08:03 33.93852 -118.40290 132 ft 13 kts 84°
2026-05-05 08:03 33.93861 -118.40177 130 ft 13 kts 85°
2026-05-05 08:04 33.93871 -118.40073 128 ft 12 kts 82°
2026-05-05 08:04 33.93881 -118.39975 127 ft 10 kts 84°
2026-05-05 08:04 33.93890 -118.39885 126 ft 11 kts 83°
2026-05-05 08:04 33.93901 -118.39771 126 ft 13 kts 84°
2026-05-05 08:05 33.93912 -118.39660 123 ft 13 kts 83°
2026-05-05 08:05 33.93924 -118.39549 121 ft 13 kts 83°
2026-05-05 08:05 33.93935 -118.39444 119 ft 12 kts 83°
2026-05-05 08:05 33.93945 -118.39345 117 ft 12 kts 82°
2026-05-05 08:06 33.93958 -118.39234 116 ft 14 kts 82°
2026-05-05 08:06 33.93970 -118.39105 115 ft 16 kts 84°
2026-05-05 08:06 33.93984 -118.38963 115 ft 17 kts 82°
2026-05-05 08:06 33.93998 -118.38822 114 ft 15 kts 83°
2026-05-05 08:07 33.94011 -118.38699 113 ft 13 kts 83°
2026-05-05 08:07 33.94023 -118.38592 112 ft 12 kts 83°
2026-05-05 08:07 33.94033 -118.38491 112 ft 11 kts 83°
2026-05-05 08:07 33.94042 -118.38397 111 ft 11 kts 84°
2026-05-05 08:08 33.94051 -118.38308 110 ft 11 kts 83°
2026-05-05 08:08 33.94062 -118.38206 110 ft 13 kts 83°
2026-05-05 08:08 33.94074 -118.38091 109 ft 13 kts 85°
2026-05-05 08:08 33.94072 -118.38032 109 ft 5 kts 114°
2026-05-05 08:09 33.94047 -118.38007 108 ft 4 kts 163°
2026-05-05 08:09 33.94008 -118.38014 108 ft 6 kts 217°
2026-05-05 08:09 33.93987 -118.38051 108 ft 4 kts 249°
2026-05-05 08:09 33.93978 -118.38095 109 ft 5 kts 260°
2026-05-05 08:10 33.93975 -118.38116 109 ft 0 kts 262°
2026-05-05 08:10 33.93972 -118.38142 109 ft 10 kts 262°
2026-05-05 08:10 33.93952 -118.38341 110 ft 49 kts 263°
2026-05-05 08:11 33.93881 -118.39044 116 ft 117 kts 263°
2026-05-05 08:11 33.93746 -118.40282 142 ft 175 kts 263°
2026-05-05 08:11 33.93538 -118.41787 719 ft 186 kts 260°
2026-05-05 08:11 33.93342 -118.43353 1386 ft 198 kts 264°
2026-05-05 08:12 33.93221 -118.45013 1793 ft 205 kts 267°
2026-05-05 08:12 33.93141 -118.46806 2016 ft 221 kts 265°
2026-05-05 08:12 33.92967 -118.48709 2282 ft 237 kts 264°
2026-05-05 08:12 33.92780 -118.50758 2622 ft 252 kts 265°
2026-05-05 08:13 33.92601 -118.52884 3173 ft 258 kts 265°
2026-05-05 08:13 33.92419 -118.55088 3673 ft 267 kts 265°
2026-05-05 08:13 33.92232 -118.57341 4320 ft 270 kts 265°
2026-05-05 08:13 33.92048 -118.59566 5039 ft 269 kts 265°
2026-05-05 08:14 33.91858 -118.61841 5687 ft 271 kts 265°
2026-05-05 08:14 33.91765 -118.64091 6292 ft 273 kts 270°
2026-05-05 08:14 33.91757 -118.66403 6906 ft 276 kts 270°
2026-05-05 08:14 33.91754 -118.68716 7481 ft 279 kts 270°
2026-05-05 08:15 33.91748 -118.71088 8106 ft 280 kts 270°
2026-05-05 08:15 33.91739 -118.73441 8692 ft 284 kts 270°
2026-05-05 08:15 33.91730 -118.75848 9233 ft 287 kts 270°
2026-05-05 08:15 33.91719 -118.78262 9800 ft 289 kts 269°
2026-05-05 08:16 33.91708 -118.80702 10261 ft 296 kts 269°
2026-05-05 08:16 33.91696 -118.83298 10419 ft 314 kts 269°
2026-05-05 08:16 33.91743 -118.86006 10607 ft 330 kts 272°
2026-05-05 08:16 33.91844 -118.88836 10818 ft 346 kts 272°
2026-05-05 08:17 33.91943 -118.91803 11029 ft 361 kts 272°
2026-05-05 08:17 33.92038 -118.94914 11357 ft 373 kts 272°
2026-05-05 08:17 33.92157 -118.98043 11911 ft 378 kts 275°
2026-05-05 08:17 33.92641 -119.01159 12522 ft 381 kts 285°
2026-05-05 08:18 33.93604 -119.04161 13103 ft 385 kts 296°
2026-05-05 08:18 33.94963 -119.06982 13630 ft 391 kts 301°
2026-05-05 08:18 33.96421 -119.09798 14183 ft 395 kts 301°
2026-05-05 08:18 33.97889 -119.12632 14728 ft 399 kts 301°
2026-05-05 08:19 33.99377 -119.15507 15303 ft 401 kts 301°
2026-05-05 08:19 34.01091 -119.18210 15854 ft 406 kts 311°
2026-05-05 08:19 34.03204 -119.20531 16384 ft 411 kts 321°
2026-05-05 08:19 34.05572 -119.22602 16918 ft 414 kts 323°
2026-05-05 08:20 34.07935 -119.24625 17434 ft 418 kts 323°
2026-05-05 08:20 34.10341 -119.26685 17962 ft 421 kts 323°
2026-05-05 08:20 34.12761 -119.28761 18473 ft 424 kts 323°
2026-05-05 08:20 34.15202 -119.30859 18982 ft 427 kts 323°
2026-05-05 08:21 34.17667 -119.32980 19488 ft 430 kts 323°
2026-05-05 08:21 34.20101 -119.35077 19970 ft 433 kts 323°
2026-05-05 08:21 34.22588 -119.37222 20470 ft 435 kts 323°
2026-05-05 08:21 34.25071 -119.39365 20944 ft 438 kts 323°
2026-05-05 08:22 34.27583 -119.41536 21406 ft 441 kts 323°
2026-05-05 08:22 34.30120 -119.43729 21852 ft 444 kts 323°
2026-05-05 08:22 34.32629 -119.45919 22258 ft 447 kts 321°
2026-05-05 08:22 34.34954 -119.48460 22673 ft 448 kts 311°
2026-05-05 08:23 34.36910 -119.51424 23094 ft 449 kts 302°
2026-05-05 08:23 34.38430 -119.54695 23508 ft 449 kts 293°
2026-05-05 08:23 34.39511 -119.58272 23910 ft 450 kts 284°
2026-05-05 08:23 34.40100 -119.62011 24279 ft 451 kts 275°
2026-05-05 08:24 34.40181 -119.65813 24651 ft 451 kts 266°
2026-05-05 08:24 34.39952 -119.69671 25042 ft 453 kts 264°
2026-05-05 08:24 34.39692 -119.73480 25420 ft 454 kts 264°
2026-05-05 08:24 34.39429 -119.77267 25749 ft 457 kts 264°
2026-05-05 08:25 34.39155 -119.81164 26025 ft 460 kts 264°
2026-05-05 08:25 34.38881 -119.85043 26338 ft 463 kts 264°
2026-05-05 08:25 34.38605 -119.88930 26673 ft 465 kts 265°
2026-05-05 08:25 34.38322 -119.92878 26988 ft 467 kts 265°
2026-05-05 08:26 34.38039 -119.96820 27300 ft 470 kts 265°
2026-05-05 08:26 34.37756 -120.00740 27617 ft 472 kts 265°
2026-05-05 08:26 34.37466 -120.04734 27952 ft 474 kts 265°
2026-05-05 08:26 34.37174 -120.08730 28285 ft 475 kts 265°
2026-05-05 08:27 34.36883 -120.12694 28587 ft 477 kts 265°
2026-05-05 08:27 34.36584 -120.16757 28861 ft 479 kts 265°
2026-05-05 08:27 34.36286 -120.20779 29114 ft 482 kts 265°
2026-05-05 08:27 34.35985 -120.24824 29436 ft 482 kts 265°
2026-05-05 08:28 34.35680 -120.28902 29795 ft 481 kts 266°
2026-05-05 08:28 34.35377 -120.32951 29988 ft 482 kts 265°
2026-05-05 08:28 34.34760 -120.41111 30023 ft 481 kts 266°
2026-05-05 08:29 34.33237 -120.49107 30014 ft 487 kts 250°
2026-05-05 08:30 34.28901 -120.60375 30019 ft 489 kts 246°
2026-05-05 08:30 34.25937 -120.67878 30023 ft 491 kts 246°
2026-05-05 08:31 34.22977 -120.75349 30016 ft 491 kts 246°
2026-05-05 08:31 34.20074 -120.82653 30022 ft 492 kts 246°
2026-05-05 08:32 34.17084 -120.90161 30022 ft 491 kts 246°
2026-05-05 08:32 34.14100 -120.97635 30024 ft 491 kts 246°
2026-05-05 08:33 34.11107 -121.05115 30026 ft 492 kts 245°
2026-05-05 08:33 34.08109 -121.12592 30017 ft 495 kts 246°
2026-05-05 08:34 34.05078 -121.20130 30011 ft 495 kts 246°
2026-05-05 08:34 34.02043 -121.27663 30013 ft 498 kts 246°
2026-05-05 08:35 33.98994 -121.35216 30014 ft 496 kts 246°
2026-05-05 08:35 33.95959 -121.42715 30030 ft 492 kts 246°
2026-05-05 08:36 33.92934 -121.50174 30020 ft 497 kts 246°
2026-05-05 08:36 33.89880 -121.57687 30041 ft 496 kts 246°
2026-05-05 08:37 33.86814 -121.65216 30022 ft 497 kts 246°
2026-05-05 08:37 33.83714 -121.72809 30030 ft 503 kts 246°
2026-05-05 08:38 33.80643 -121.80312 30052 ft 500 kts 246°
2026-05-05 08:38 33.77541 -121.87878 30050 ft 499 kts 246°
2026-05-05 08:39 33.74451 -121.95396 30048 ft 502 kts 246°
2026-05-05 08:39 33.71331 -122.02972 30036 ft 501 kts 246°
2026-05-05 08:40 33.68233 -122.10476 30044 ft 502 kts 246°
2026-05-05 08:40 33.65109 -122.18027 30055 ft 499 kts 246°
2026-05-05 08:41 33.61992 -122.25548 30050 ft 503 kts 247°
2026-05-05 08:41 33.58872 -122.33055 30042 ft 497 kts 247°
2026-05-05 08:42 33.55766 -122.40514 30048 ft 501 kts 247°
2026-05-05 08:42 33.52652 -122.47975 30055 ft 496 kts 247°
2026-05-05 08:43 33.49547 -122.55400 30042 ft 497 kts 247°
2026-05-05 08:43 33.47279 -122.63091 30066 ft 490 kts 260°
2026-05-05 08:44 33.45639 -122.71154 30045 ft 491 kts 260°
2026-05-05 08:44 33.44019 -122.79074 30037 ft 493 kts 260°
2026-05-05 08:45 33.42375 -122.87051 30060 ft 492 kts 260°
2026-05-05 08:45 33.40709 -122.95085 30052 ft 492 kts 260°
2026-05-05 08:46 33.39062 -123.02992 30072 ft 493 kts 260°
2026-05-05 08:46 33.37378 -123.11050 30037 ft 492 kts 260°
2026-05-05 08:47 33.35720 -123.18941 30055 ft 489 kts 260°
2026-05-05 08:47 33.34036 -123.26942 30026 ft 491 kts 260°
2026-05-05 08:48 33.32362 -123.34854 30067 ft 487 kts 261°
2026-05-05 08:48 33.30679 -123.42794 30038 ft 492 kts 261°
2026-05-05 08:49 33.28987 -123.50744 30054 ft 495 kts 261°
2026-05-05 08:49 33.27288 -123.58695 30054 ft 492 kts 261°
2026-05-05 08:50 33.25587 -123.66631 30056 ft 491 kts 261°
2026-05-05 08:50 33.23886 -123.74545 30074 ft 493 kts 261°
2026-05-05 08:51 33.22149 -123.82598 30058 ft 492 kts 261°
2026-05-05 08:51 33.20427 -123.90552 30059 ft 495 kts 261°
2026-05-05 08:52 33.18689 -123.98550 30056 ft 491 kts 261°
2026-05-05 08:52 33.16965 -124.06465 30059 ft 496 kts 261°
2026-05-05 08:53 33.15222 -124.14439 30059 ft 494 kts 261°
2026-05-05 08:53 33.13479 -124.22378 30055 ft 490 kts 261°
2026-05-05 08:54 33.11737 -124.30294 30061 ft 492 kts 261°
2026-05-05 08:54 33.10001 -124.38157 30066 ft 492 kts 261°
2026-05-05 08:55 33.08238 -124.46114 30063 ft 489 kts 261°
2026-05-05 08:55 33.06104 -124.54280 30078 ft 498 kts 253°
2026-05-05 08:56 33.03404 -124.62074 30058 ft 499 kts 253°
2026-05-05 08:56 33.00697 -124.69821 30061 ft 495 kts 253°
2026-05-05 08:57 32.97986 -124.77567 30057 ft 498 kts 252°
2026-05-05 08:57 32.95301 -124.85216 30056 ft 493 kts 253°
2026-05-05 08:58 32.92633 -124.92806 30067 ft 497 kts 253°
2026-05-05 08:58 32.89914 -125.00518 30056 ft 496 kts 253°
2026-05-05 08:59 32.87202 -125.08190 30047 ft 492 kts 253°
2026-05-05 08:59 32.84508 -125.15797 30043 ft 494 kts 253°
2026-05-05 09:00 32.81841 -125.23308 30047 ft 489 kts 253°
2026-05-05 09:00 32.79166 -125.30827 30038 ft 489 kts 253°
2026-05-05 09:01 32.76506 -125.38286 30033 ft 488 kts 253°
2026-05-05 09:01 32.73837 -125.45753 30042 ft 485 kts 253°
2026-05-05 09:02 32.68525 -125.60566 30048 ft 482 kts 253°
2026-05-05 09:03 32.65882 -125.67907 30058 ft 479 kts 252°
2026-05-05 09:03 32.63234 -125.75252 30059 ft 478 kts 252°